Wind_Speed
27 30 29 31 33 33 32 32 31 33 31 24 31 29 35 42 40 42 44 47 46 46 46 42 43 45 49 49 53 56 57 69 65 63 69 74 74 71 73 71 68 58 60 61
29 31 30 32 29 28 30 32 33 37 40 33 27 35 44 45 47 45 38 47 45 44 42 41 42 42 47 47 43 51 60 62 70 68 72 72 77 76 76 66 71 65 70 62
32 31 30 30 22 29 32 29 39 43 40 42 38 32 30 44 44 36 37 40 40 43 39 36 40 41 44 47 42 49 51 55 72 73 72 75 75 78 76 82 79 79 60 67
34 30 29 24 26 34 39 35 38 36 24 36 47 43 48 50 53 48 44 41 44 45 45 42 40 43 43 43 41 45 49 46 57 75 78 74 71 80 79 74 67 75 60 65
30 30 27 25 25 30 33 27 34 35 37 39 43 54 53 56 50 43 38 37 45 50 49 45 43 44 43 42 43 39 46 43 56 58 69 83 79 72 80 82 80 82 80 74
30 26 18 27 28 28 34 38 31 29 39 38 24 44 46 38 34 31 35 32 34 38 41 46 49 48 46 40 39 39 40 46 53 46 55 71 86 84 72 68 77 75 85 79
37 34 33 29 31 34 38 31 39 31 35 36 26 34 32 20 20 23 31 33 36 36 35 39 44 45 46 48 46 43 41 41 45 51 47 44 64 92 75 81 63 56 54 75
45 42 31 28 40 40 40 42 40 39 33 24 27 29 18 18 26 20 29 36 41 43 38 25 30 40 44 47 48 47 46 45 44 47 48 47 42 42 58 78 79 67 63 58
48 43 33 35 41 40 32 27 25 40 24 28 23 21 28 34 20 20 29 38 42 41 35 40 34 32 37 40 42 41 42 46 47 47 49 47 46 44 44 43 41 71 81 75
41 46 39 37 40 40 34 28 27 29 31 28 26 27 34 27 25 29 26 31 36 41 41 42 38 37 35 33 38 39 38 40 42 43 45 48 49 50 50 47 41 37 39 41
50 47 37 38 39 36 28 27 29 31 33 36 36 27 29 38 35 28 35 34 36 44 47 43 43 43 42 40 38 38 37 37 38 39 39 41 43 44 46 47 46 46 45 44
28 39 37 20 20 22 21 29 29 33 29 28 32 25 28 32 25 24 22 37 42 41 38 39 40 43 45 45 43 42 42 42 42 42 43 43 43 44 44 44 43 45 45 46
27 25 29 26 26 23 28 32 29 21 23 31 31 28 23 30 41 39 37 34 42 40 39 35 39 34 44 40 43 47 46 45 44 45 45 47 48 50 50 49 47 47 46 45
16 15 17 18 17 20 26 22 23 31 31 28 24 31 30 30 31 33 31 35 33 34 28 30 29 23 31 45 47 44 45 46 47 47 45 45 49 52 53 51 52 52 49 48
11 10 14 14 13 13 13 19 19 22 24 26 22 27 24 26 28 35 41 41 40 36 36 43 42 39 35 41 42 40 46 49 50 50 50 49 50 51 54 55 56 54 55 53
12 12 13 10 13 14 15 14 14 17 22 29 29 34 35 34 36 37 47 41 38 32 45 45 43 44 48 50 50 49 50 54 56 58 55 53 57 58 59 61 60 58 55 58
12 13 12 8 15 15 13 19 18 20 19 25 34 33 34 30 33 32 32 43 53 51 49 49 53 52 50 53 60 51 52 55 57 57 60 62 61 63 64 66 64 61 60 61
13 13 13 7 8 6 9 13 16 17 23 21 31 30 21 28 32 39 38 39 40 51 55 62 52 58 58 57 59 64 62 59 60 61 61 61 64 67 64 65 64 65 62 62
13 14 11 11 13 9 14 10 18 17 18 22 27 30 31 34 40 42 48 52 56 60 62 65 67 67 68 71 71 75 75 69 66 64 63 62 63 61 59 61 62 61 61 64
10 11 7 10 8 7 10 11 17 20 21 24 31 35 40 45 47 45 49 53 57 60 63 63 62 62 61 59 61 64 62 63 65 59 56 51 49 51 57 56 58 62 63 62
9 7 9 10 11 12 13 17 20 26 30 30 37 43 44 47 48 44 49 49 55 54 57 63 66 64 63 62 62 59 56 53 50 49 46 44 45 48 48 47 49 53 61 57
12 10 10 11 14 16 17 22 30 33 33 39 38 34 37 39 41 44 43 46 47 48 48 51 56 54 51 50 50 43 40 41 44 47 43 42 43 45 39 36 39 46 51 53
10 9 11 13 17 20 26 31 36 39 41 37 34 34 37 34 36 37 39 40 43 43 36 39 45 45 44 40 39 35 34 38 41 40 39 41 41 34 34 28 33 45 49 45
10 11 15 18 25 25 29 33 38 41 36 30 31 30 29 34 38 44 46 45 47 45 50 51 50 46 38 41 38 32 32 34 37 41 41 42 28 31 31 30 40 49 46 44
11 13 14 19 29 26 28 36 39 32 29 28 24 27 37 43 50 53 49 29 24 21 20 21 27 34 34 32 31 30 30 35 40 32 24 23 32 35 37 39 41 48 45 40
14 15 18 24 26 29 33 33 22 27 21 25 27 34 39 44 45 32 28 29 30 23 22 16 17 12 20 29 19 18 21 23 15 15 17 19 20 29 37 42 44 41 34 36
Wind_Direction
278 271 271 268 267 264 258 252 255 254 236 238 243 251 250 254 247 247 243 247 250 251 252 256 254 248 255 245 238 239 237 229 242 239 233 235 241 245 250 253 253 239 234 234
280 280 276 268 264 259 258 254 245 235 232 220 228 223 230 242 255 253 253 248 250 252 256 258 256 252 254 254 242 246 243 240 236 240 236 239 238 240 244 245 252 239 236 234
286 283 278 271 259 260 261 248 251 254 244 219 228 221 232 242 249 249 259 259 255 252 244 247 255 253 254 254 249 240 238 244 236 238 239 239 239 240 243 244 247 256 244 249
285 288 276 262 249 258 270 266 258 262 255 246 229 239 234 242 254 260 261 250 252 256 256 249 248 254 255 255 251 241 236 233 240 239 240 240 245 242 242 245 237 253 238 249
295 295 280 257 258 272 278 283 270 253 246 248 241 237 244 245 255 258 257 245 242 248 253 257 255 253 250 255 256 244 239 238 238 240 245 240 241 247 247 249 252 251 257 257
288 294 260 256 253 252 275 278 277 254 252 259 288 251 251 260 266 253 252 258 247 246 250 252 252 253 253 251 256 253 244 246 246 243 242 245 240 243 244 251 248 250 250 258
286 281 283 263 270 249 248 260 269 264 251 270 273 266 255 248 224 225 220 242 254 255 253 252 255 255 254 253 251 251 252 246 249 248 248 253 250 242 244 243 249 242 248 253
292 287 273 279 278 278 256 247 252 263 267 269 269 269 242 242 241 242 216 245 253 252 257 258 248 251 253 251 251 252 248 248 248 250 251 253 258 256 252 254 256 239 240 244
274 274 277 281 289 278 285 270 274 257 254 272 267 271 243 237 204 231 214 225 241 265 270 267 260 247 246 253 252 251 249 248 248 248 252 252 252 256 256 253 251 249 256 258
270 279 273 264 276 283 290 278 269 244 255 262 264 274 263 221 194 195 211 237 244 256 265 268 269 264 254 250 254 253 251 249 251 250 250 252 254 253 258 260 258 253 253 258
274 273 275 271 270 273 273 258 260 242 243 257 268 262 265 259 265 234 222 222 236 245 254 261 263 261 262 257 252 251 253 253 254 253 252 252 254 255 255 258 260 259 256 257
294 271 281 260 240 262 260 256 255 263 241 257 264 253 254 259 250 245 247 227 240 244 240 246 248 253 258 261 258 255 253 252 251 252 253 255 254 254 253 253 253 254 256 255
296 285 275 271 282 272 261 256 248 268 241 259 257 258 269 256 259 265 273 265 236 229 239 243 264 263 256 255 258 262 262 260 257 255 251 251 253 252 252 252 249 248 250 250
313 308 294 287 270 255 249 255 256 274 250 268 258 266 273 281 265 261 266 257 259 245 247 245 251 243 259 261 258 260 262 260 259 257 256 257 254 252 251 249 251 252 250 249
343 323 305 299 286 271 265 249 273 288 257 269 281 269 267 269 262 250 261 267 266 259 259 257 249 253 242 259 273 266 253 253 255 259 260 259 261 262 260 252 248 247 250 250
325 311 311 305 285 271 272 274 261 265 254 264 269 266 261 263 269 265 255 257 260 263 260 260 250 250 259 269 270 264 262 257 257 259 263 263 263 263 262 260 256 250 247 247
340 325 313 315 286 280 289 278 260 261 252 264 267 278 275 278 262 261 261 266 259 264 267 272 270 261 264 266 266 255 257 262 264 264 262 263 265 266 268 264 260 256 252 245
315 330 324 305 323 321 275 295 290 246 258 275 277 272 288 274 267 267 270 267 263 258 260 265 269 262 261 253 260 264 266 265 265 267 267 269 269 269 264 260 258 255 251 245
325 330 317 290 293 292 282 271 314 315 304 298 293 291 284 277 272 270 272 269 268 270 270 271 271 268 262 263 265 263 264 264 269 270 270 266 263 264 261 258 256 252 243 239
310 336 324 320 327 301 295 315 304 307 308 302 297 293 289 283 278 276 272 270 270 270 270 271 270 271 271 270 269 267 266 266 267 267 269 264 261 267 268 266 262 251 241 231
316 312 319 311 317 309 316 311 306 303 303 297 287 286 283 281 285 283 281 276 274 273 270 268 269 269 269 269 268 267 266 267 266 263 263 264 262 267 266 263 252 237 221 222
307 312 313 317 318 320 319 318 315 311 305 305 305 301 295 291 291 291 286 279 275 275 273 269 269 268 268 269 267 266 263 263 262 262 261 259 263 263 263 256 243 218 208 207
282 302 312 311 302 311 304 309 316 317 312 307 301 299 301 302 301 299 295 292 281 274 273 276 275 271 265 259 259 259 262 260 257 260 263 261 266 255 246 237 217 199 196 197
273 294 297 300 306 312 307 309 311 311 310 310 310 319 324 325 321 316 303 295 291 288 278 277 271 274 268 266 261 260 257 264 265 261 263 261 245 234 218 208 196 194 196 199
266 285 302 317 317 323 314 313 314 317 320 322 318 326 336 328 322 317 325 335 336 345 340 309 286 270 253 251 252 251 254 265 267 279 263 242 222 210 201 196 197 196 204 203
264 280 291 313 321 324 326 325 324 322 329 331 342 338 330 330 333 348 0 9 357 335 341 329 325 311 272 247 234 251 262 284 268 243 235 221 217 209 196 193 192 190 199 195
Height
5731 5730 5731 5730 5729 5728 5727 5727 5728 5732 5733 5734 5733 5736 5738 5740 5745 5747 5750 5751 5754 5757 5759 5759 5765 5770 5768 5779 5785 5790 5791 5797 5799 5805 5809 5815 5819 5824 5828 5832 5838 5839 5842 5844
5725 5723 5722 5720 5719 5718 5718 5717 5717 5718 5721 5725 5723 5723 5729 5730 5733 5735 5738 5742 5745 5747 5749 5748 5752 5759 5760 5764 5772 5777 5781 5783 5787 5791 5797 5800 5805 5811 5817 5819 5823 5824 5828 5835
5715 5715 5713 5711 5711 5710 5710 5709 5709 5708 5713 5715 5713 5712 5715 5718 5723 5728 5729 5732 5734 5736 5740 5741 5739 5746 5750 5753 5760 5763 5767 5772 5776 5779 5783 5788 5791 5797 5803 5807 5811 5814 5819 5826
5709 5708 5706 5704 5704 5703 5701 5703 5700 5700 5700 5702 5708 5700 5706 5708 5710 5714 5719 5721 5722 5723 5725 5730 5733 5732 5738 5743 5747 5752 5756 5758 5763 5769 5772 5777 5781 5786 5790 5793 5795 5801 5801 5808
5703 5699 5697 5696 5696 5695 5693 5693 5691 5692 5690 5689 5696 5692 5698 5699 5704 5707 5708 5712 5713 5712 5715 5720 5722 5725 5727 5729 5734 5740 5745 5747 5750 5755 5760 5764 5768 5772 5778 5783 5788 5794 5797 5803
5691 5691 5689 5688 5687 5687 5685 5683 5683 5685 5684 5682 5689 5685 5688 5696 5696 5698 5697 5699 5703 5704 5704 5708 5711 5713 5716 5721 5723 5727 5733 5736 5738 5741 5746 5750 5757 5761 5766 5770 5776 5779 5785 5787
5682 5681 5683 5677 5678 5679 5678 5674 5673 5675 5675 5674 5678 5672 5681 5686 5683 5682 5689 5689 5691 5695 5696 5698 5700 5703 5707 5709 5712 5715 5720 5725 5727 5730 5733 5737 5741 5748 5752 5756 5760 5766 5770 5776
5668 5669 5670 5672 5669 5667 5669 5667 5665 5664 5667 5669 5667 5667 5674 5675 5671 5676 5677 5681 5682 5682 5685 5692 5692 5693 5696 5698 5701 5705 5709 5712 5716 5718 5722 5724 5726 5730 5737 5741 5746 5751 5755 5762
5658 5660 5661 5661 5660 5660 5660 5659 5661 5653 5659 5658 5661 5663 5665 5664 5663 5668 5671 5672 5672 5675 5679 5679 5681 5685 5687 5688 5691 5693 5697 5698 5702 5708 5710 5713 5717 5720 5724 5731 5734 5739 5742 5747
5655 5648 5655 5651 5648 5649 5650 5650 5650 5648 5651 5650 5655 5656 5655 5659 5657 5658 5662 5666 5666 5668 5669 5669 5671 5673 5676 5679 5680 5683 5686 5689 5691 5694 5698 5702 5706 5709 5712 5716 5721 5725 5730 5732
5640 5640 5642 5642 5642 5641 5643 5643 5643 5644 5643 5643 5646 5652 5649 5648 5649 5653 5654 5654 5656 5660 5661 5665 5664 5663 5665 5667 5670 5672 5676 5680 5682 5685 5687 5691 5694 5696 5700 5704 5708 5712 5718 5722
5632 5627 5627 5631 5633 5631 5634 5634 5635 5634 5636 5639 5638 5642 5646 5643 5643 5642 5647 5645 5648 5649 5649 5651 5653 5655 5656 5657 5658 5662 5665 5668 5670 5673 5677 5679 5683 5685 5688 5693 5698 5702 5707 5711
5624 5621 5619 5623 5624 5623 5625 5628 5626 5621 5630 5631 5632 5635 5635 5636 5633 5637 5638 5638 5639 5636 5638 5639 5643 5642 5646 5649 5651 5650 5652 5656 5660 5662 5665 5668 5671 5673 5676 5681 5687 5692 5695 5700
5621 5618 5616 5616 5616 5618 5621 5622 5623 5621 5623 5624 5626 5627 5630 5629 5627 5626 5626 5626 5628 5630 5631 5633 5632 5630 5633 5634 5639 5641 5642 5643 5645 5648 5651 5654 5656 5658 5662 5668 5673 5677 5682 5688
5619 5618 5615 5615 5614 5614 5615 5617 5618 5617 5618 5619 5622 5622 5622 5616 5617 5620 5619 5618 5619 5622 5622 5622 5622 5624 5622 5622 5625 5627 5628 5629 5630 5632 5635 5638 5641 5643 5647 5653 5658 5665 5669 5675
5619 5617 5615 5614 5612 5610 5610 5611 5613 5614 5615 5613 5614 5613 5611 5609 5610 5611 5608 5608 5610 5608 5610 5610 5611 5610 5610 5611 5611 5611 5613 5615 5617 5620 5622 5622 5622 5624 5627 5632 5639 5647 5653 5658
5617 5614 5612 5612 5609 5608 5609 5605 5606 5606 5605 5606 5605 5604 5602 5603 5602 5599 5598 5598 5598 5595 5593 5592 5593 5596 5596 5594 5594 5595 5597 5598 5600 5603 5604 5605 5606 5606 5608 5610 5617 5627 5633 5639
5615 5612 5610 5610 5607 5606 5604 5604 5603 5603 5602 5600 5598 5598 5595 5594 5593 5590 5588 5583 5581 5581 5579 5579 5578 5578 5578 5576 5577 5577 5578 5580 5582 5584 5584 5586 5585 5586 5589 5590 5596 5604 5612 5618
5611 5609 5608 5606 5605 5605 5602 5602 5591 5596 5597 5595 5591 5588 5586 5583 5579 5579 5573 5569 5567 5563 5561 5560 5559 5558 5558 5558 5557 5557 5558 5560 5560 5561 5563 5565 5563 5565 5566 5569 5575 5582 5589 5596
5609 5607 5606 5604 5602 5601 5600 5600 5596 5593 5592 5586 5582 5578 5573 5569 5564 5565 5559 5556 5550 5546 5542 5539 5537 5535 5534 5535 5533 5533 5535 5538 5541 5542 5542 5543 5543 5544 5544 5546 5548 5555 5565 5577
5607 5605 5604 5602 5600 5599 5598 5595 5593 5589 5587 5581 5574 5568 5561 5555 5549 5548 5540 5538 5530 5529 5525 5520 5515 5514 5515 5514 5513 5513 5516 5519 5520 5520 5521 5523 5524 5525 5525 5525 5526 5532 5543 5559
5605 5604 5602 5600 5597 5596 5593 5589 5585 5580 5575 5567 5560 5553 5548 5543 5538 5530 5524 5517 5513 5508 5505 5500 5491 5493 5494 5493 5492 5495 5498 5501 5501 5500 5503 5506 5507 5509 5510 5510 5510 5517 5532 5547
5603 5602 5600 5599 5596 5593 5587 5583 5578 5571 5563 5557 5550 5545 5536 5533 5525 5518 5510 5505 5497 5489 5485 5481 5475 5475 5476 5475 5474 5479 5485 5483 5484 5484 5487 5489 5490 5493 5497 5501 5504 5513 5526 5540
5600 5599 5597 5596 5591 5590 5583 5579 5571 5563 5555 5549 5542 5535 5527 5519 5513 5505 5496 5487 5478 5472 5466 5460 5456 5455 5458 5458 5460 5465 5469 5468 5468 5469 5471 5472 5476 5480 5487 5495 5501 5512 5522 5534
5597 5595 5593 5591 5586 5584 5577 5570 5562 5555 5548 5543 5536 5528 5520 5510 5503 5490 5480 5472 5464 5457 5449 5443 5437 5434 5439 5442 5446 5451 5455 5455 5454 5456 5455 5456 5461 5468 5478 5489 5499 5511 5521 5532
5592 5592 5591 5588 5583 5578 5573 5564 5557 5551 5545 5538 5531 5527 5519 5506 5493 5484 5476 5470 5463 5453 5445 5437 5432 5428 5426 5430 5439 5445 5448 5447 5447 5447 5447 5451 5454 5460 5471 5483 5496 5508 5519 5530